Terminal Aerodrome Forecast
Issued by NWS

Home | Current Version | Previous Version | Text Only | Print | Product List | Glossary On
Versions: 1 2 3 4 5 6 7 8 9 10 11 12 13 14 15 16 17 18 19 20
000
FTPQ31 PGUM 232322
TAFGUM
TAF

TAF
PGRO 232322Z 2400/2424 20013G23KT P6SM VCSH SCT012 SCT070 BKN120
     FM240800 22010KT P6SM VCSH SCT015 SCT120=

USA.gov is the U.S. government's official web portal to all federal, state and local government web resources and services.